TimeEDT,TemperatureF,Dew PointF,Humidity,Sea Level PressureIn,VisibilityMPH,Wind Direction,Wind SpeedMPH,Gust SpeedMPH,PrecipitationIn,Events,Conditions,WindDirDegrees,DateUTC
12:31 AM,33.8,28.4,81,29.87,9.0,WSW,15.0,-,0.00,Snow,Light Snow,250,2013-03-12 04:31:00
12:54 AM,33.1,28.9,85,29.89,10.0,WSW,16.1,-,0.00,,Overcast,250,2013-03-12 04:54:00
1:54 AM,33.1,28.9,85,29.89,10.0,West,18.4,-,N/A,,Overcast,260,2013-03-12 05:54:00
2:54 AM,33.1,28.0,82,29.90,10.0,West,13.8,-,N/A,,Overcast,260,2013-03-12 06:54:00
3:54 AM,33.1,27.0,78,29.90,10.0,West,16.1,24.2,N/A,,Overcast,270,2013-03-12 07:54:00
4:54 AM,33.1,27.0,78,29.91,10.0,West,15.0,-,N/A,,Overcast,260,2013-03-12 08:54:00
5:54 AM,32.0,26.1,79,29.94,10.0,West,20.7,25.3,N/A,,Overcast,270,2013-03-12 09:54:00
6:54 AM,32.0,26.1,79,29.95,10.0,West,12.7,-,N/A,,Overcast,260,2013-03-12 10:54:00
7:54 AM,32.0,26.1,79,29.96,9.0,West,13.8,-,0.00,Snow,Light Snow,260,2013-03-12 11:54:00
8:54 AM,32.0,25.0,75,29.98,10.0,West,12.7,-,0.00,,Overcast,280,2013-03-12 12:54:00
9:54 AM,30.9,23.0,72,29.99,10.0,West,13.8,-,N/A,,Overcast,270,2013-03-12 13:54:00
10:54 AM,32.0,23.0,69,30.01,10.0,WSW,16.1,-,N/A,,Overcast,250,2013-03-12 14:54:00
11:54 AM,34.0,25.0,70,30.02,10.0,West,16.1,-,N/A,,Mostly Cloudy,260,2013-03-12 15:54:00
12:54 PM,37.9,26.1,62,30.01,10.0,WSW,13.8,24.2,N/A,,Mostly Cloudy,250,2013-03-12 16:54:00
1:47 PM,39.2,24.8,56,29.99,10.0,West,17.3,-,N/A,,Mostly Cloudy,270,2013-03-12 17:47:00
1:54 PM,39.0,25.0,57,30.01,10.0,WSW,19.6,-,N/A,,Mostly Cloudy,250,2013-03-12 17:54:00
2:54 PM,42.1,25.0,51,29.99,10.0,WSW,19.6,-,N/A,,Mostly Cloudy,250,2013-03-12 18:54:00
3:54 PM,43.0,25.0,49,29.98,10.0,WSW,23.0,40.3,N/A,,Mostly Cloudy,250,2013-03-12 19:54:00
4:54 PM,42.1,24.1,49,29.98,10.0,West,18.4,28.8,N/A,,Mostly Cloudy,260,2013-03-12 20:54:00
5:54 PM,41.0,23.0,49,29.99,10.0,West,20.7,26.5,N/A,,Mostly Cloudy,270,2013-03-12 21:54:00
6:54 PM,39.9,24.1,53,29.99,10.0,West,13.8,-,N/A,,Mostly Cloudy,260,2013-03-12 22:54:00
7:37 PM,39.2,26.6,61,29.98,10.0,WSW,16.1,23.0,0.00,Rain,Light Ice Pellets,240,2013-03-12 23:37:00
7:54 PM,37.9,28.0,68,30.00,10.0,West,13.8,-,0.00,Rain,Light Ice Pellets,280,2013-03-12 23:54:00
8:09 PM,37.4,28.4,70,30.01,1.0,West,23.0,31.1,0.00,Rain-Snow,Light Ice Pellets,280,2013-03-13 00:09:00
8:21 PM,33.8,30.2,87,30.01,3.0,West,20.7,28.8,0.01,Snow,Light Snow,270,2013-03-13 00:21:00
8:44 PM,33.8,30.2,87,30.01,9.0,West,17.3,24.2,0.02,,Mostly Cloudy,260,2013-03-13 00:44:00
8:54 PM,34.0,30.0,85,30.04,10.0,West,18.4,-,0.02,,Mostly Cloudy,270,2013-03-13 00:54:00
9:54 PM,33.1,28.9,85,30.05,10.0,West,12.7,-,N/A,,Overcast,270,2013-03-13 01:54:00
10:54 PM,32.0,28.0,85,30.05,10.0,West,11.5,-,N/A,,Scattered Clouds,270,2013-03-13 02:54:00
11:54 PM,32.0,27.0,82,30.05,10.0,West,11.5,-,N/A,,Mostly Cloudy,270,2013-03-13 03:54:00